Regional Weather Roundup
Issued by NWS Memphis, TN

Home | Current Version | Previous Version | Text Only | Print | Product List | Glossary On
Versions: 1 2 3 4 5 6 7 8 9 10 11 12 13 14 15 16 17 18 19 20 21 22 23 24 25 26 27 28 29 30 31 32 33 34 35 36 37 38 39 40 41 42 43 44 45 46 47 48 49 50
000
ASUS44 KMEG 300010
RWRMEG
MEMPHIS CWA HOURLY WEATHER ROUNDUP
NATIONAL WEATHER SERVICE MEMPHIS TN
700 PM CDT FRI JUL 29 2016

...WEST TENNESSEE...

CITY           SKY/WX    TMP DP  RH WIND       PRES   REMARKS
MEMPHIS INTL   CLOUDY    75  71  87 SW6       29.97R
6HR MIN TEMP:  73; 6HR MAX TEMP:  91; 6HR PCP:  0.54;

NWS MEMPHIS      N/A     73 N/A N/A MISG        N/A
JACKSON        CLOUDY    82  77  84 NW7       29.93R HX  90
6HR MIN TEMP:  82; 6HR MAX TEMP:  88; 6HR PCP: TRACE;

LEXINGTON      PTSUNNY   75  72  88 SW5       29.94R
DYERSBURG      CLOUDY   N/A N/A N/A MISG        N/A
UNION CITY     MOSUNNY   81  77  89 SW8       29.90S
PARIS          SUNNY     81  75  83 SW5       29.93R


...EASTERN ARKANSAS...

CITY           SKY/WX    TMP DP  RH WIND       PRES   REMARKS
JONESBORO      CLOUDY    76  70  82 NW3       29.92F
6HR MIN TEMP:  76; 6HR MAX TEMP:  83; 6HR PCP: TRACE;

WEST MEMPHIS   LGT RAIN  73  71  93 S9        29.96S
6HR MIN TEMP:  71; 6HR MAX TEMP:  88;

BATESVILLE     CLOUDY    73  70  88 CALM      29.94S
6HR MIN TEMP:  73; 6HR MAX TEMP:  88; 6HR PCP:  1.08;

NEWPORT        CLOUDY    75  75 100 CALM      29.94F
6HR MIN TEMP:  75; 6HR MAX TEMP:  88; 6HR PCP:  0.03;

WALNUT RIDGE   CLOUDY    73  70  88 SE3       29.92S
6HR MIN TEMP:  73; 6HR MAX TEMP:  88; 6HR PCP:  0.04;

BLYTHEVILLE    LGT RAIN  74  71  91 SW6       29.92F
6HR MIN TEMP:  74; 6HR MAX TEMP:  83; 6HR PCP: TRACE;

SEARCY         CLOUDY    74  72  93 CALM      30.08R
6HR MIN TEMP:  72; 6HR MAX TEMP:  93; 6HR PCP:  2.63;

STUTTGART      CLOUDY    75  70  83 SE3       29.94S THUNDER
6HR MIN TEMP:  73; 6HR MAX TEMP:  93; 6HR PCP:  0.05;

PINE BLUFF     CLOUDY    73  70  90 E3        29.95S
6HR MIN TEMP:  73; 6HR MAX TEMP:  91; 6HR PCP:  0.12;

MONTICELLO     MOSUNNY   91  76  61 S6        29.93F HX 103
6HR MIN TEMP:  88; 6HR MAX TEMP:  92;



...NORTH MISSISSIPPI...

CITY           SKY/WX    TMP DP  RH WIND       PRES   REMARKS
TUPELO         SUNNY     88  73  61 SW7       29.93S HX  95
6HR MIN TEMP:  84; 6HR MAX TEMP:  90;

OXFORD         MOSUNNY   84  73  70 W6        29.97S HX  91
BATESVILLE     CLOUDY    78  67  70 N16G25    29.98R
6HR MIN TEMP:  78; 6HR MAX TEMP:  88;

OLIVE BRANCH   PTSUNNY  N/A N/A N/A VRB7      29.98R
TUNICA         CLOUDY    72  70  94 N5        29.98F
CLARKSDALE       N/A     75  75 100 NW7G21    29.97R FOG
CORINTH        PTSUNNY   84  75  74 SW6       29.93R HX  92
GREENWOOD      MOSUNNY   87  74  64 SW3       29.94S HX  95
6HR MIN TEMP:  87; 6HR MAX TEMP:  90;

COLUMBUS       MOSUNNY   88  78  73 SW7       29.93F HX 101
6HR MIN TEMP:  85; 6HR MAX TEMP:  90;

GOLDEN TRIANGL MOSUNNY   88  72  58 SW7       29.94F HX  94


...SOUTHEAST MISSOURI...

CITY           SKY/WX    TMP DP  RH WIND       PRES   REMARKS
KENNETT        CLOUDY    75  72  88 N12       29.91S
WEST PLAINS    CLOUDY    75  68  78 SW3       29.98F
6HR MIN TEMP:  70; 6HR MAX TEMP:  88; 6HR PCP:  0.11;

POPLAR BLUFF   LGT RAIN  73  70  90 NW3       29.90F FOG
6HR MIN TEMP:  72; 6HR MAX TEMP:  87; 6HR PCP:  0.38;

CAPE GIRARDEAU LGT RAIN  73  69  87 S7        29.90F
6HR MIN TEMP:  72; 6HR MAX TEMP:  87; 6HR PCP:  0.05;



...NORTHWEST ALABAMA...

CITY           SKY/WX    TMP DP  RH WIND       PRES   REMARKS
MUSCLE SHOALS  CLEAR     85  73  67 SW9       29.95R HX  91
6HR MIN TEMP:  84; 6HR MAX TEMP:  88;



...MIDDLE TENNESSEE...

CITY           SKY/WX    TMP DP  RH WIND       PRES   REMARKS
NASHVILLE      PTCLDY    85  72  65 W3        29.93S HX  91
6HR MIN TEMP:  84; 6HR MAX TEMP:  89; 6HR PCP: TRACE;

CLARKSVILLE    HVY RAIN  74  71  91 VRB7      29.93S VSB 1/2
6HR MIN TEMP:  74; 6HR MAX TEMP:  86; 6HR PCP:  0.10;

COLUMBIA       PTCLDY    84  81  89 CALM      29.92S HX  98


...WESTERN KENTUCKY...

CITY           SKY/WX    TMP DP  RH WIND       PRES   REMARKS
PADUCAH        CLOUDY    80  71  74 W10       29.91R
6HR MIN TEMP:  80; 6HR MAX TEMP:  90;

FORT CAMPBELL  PTSUNNY   74  71  92 VRB3      29.92
6HR MIN TEMP:  73; 6HR MAX TEMP:  86; 6HR PCP:  0.37;



...CENTRAL ARKANSAS...

CITY           SKY/WX    TMP DP  RH WIND       PRES   REMARKS
LITTLE ROCK    CLOUDY    79  71  76 E5        29.93F
6HR MIN TEMP:  76; 6HR MAX TEMP:  93; 6HR PCP:  0.12;



SKY/WX REPORTED AS FAIR MEANS FEW OR NO CLOUDS BELOW
12 THOUSAND FEET.




USA.gov is the U.S. government's official web portal to all federal, state and local government web resources and services.